Voltar ao catálogo

DELTA 2 R/B(1)

AtivoLEO
NORAD 21891·ROCKET BODY·🇺🇸 United States

Lançado Feb 23, 1992 de Cape Canaveral Space Force Station

Loading…

Próximas Passagens (próximas 24 horas)

TLE

AtualizadoSource: Space-Track

Época: Sep 14, 2026, 07:42 UTC

1 21891U 92009B   26257.32096438  .00001953  00000-0  13576-3 0  9991
2 21891  19.9946 251.8021 0037688 181.0097 179.0250 14.94117356848137

Acompanhe DELTA 2 R/B(1) em tempo real com AllMySat

Download on the App Store